N9EX Weather Reports


time (UTC)temp
C
wind
direction
speed
KPH
gust
KPH
rain 1hr
cm
rain 24hr
cm
rain mn
cm
humidity
%
barometer
mb
20260505004057 26 261 8.0 16.1 0.00 0.00 0.00 37 1010.0
20260505003557 26 240 4.8 17.7 0.00 0.00 0.00 41 1010.2
20260505003101 26 284 8.0 17.7 0.00 0.00 0.00 36 1010.2
20260505002555 26 239 9.7 17.7 0.00 0.00 0.00 37 1010.0
20260505002055 26 211 9.7 17.7 0.00 0.00 0.00 36 1010.0
20260505001557 26 234 4.8 16.1 0.00 0.00 0.00 36 1010.2
20260505001054 26 196 6.4 16.1 0.00 0.00 0.00 36 1010.2
20260505000555 26 296 8.0 17.7 0.00 0.00 0.00 35 1010.2
20260505000112 26 254 4.8 19.3 0.00 0.00 0.00 40 1010.1
20260504235555 26 267 11.3 19.3 0.00 0.00 0.00 35 1010.1
20260504235055 26 255 6.4 19.3 0.00 0.00 0.00 35 1010.2
20260504234558 26 268 11.3 19.3 0.00 0.00 0.00 33 1010.2
20260504234055 26 307 8.0 14.5 0.00 0.00 0.00 34 1010.2
20260504233555 26 333 4.8 17.7 0.00 0.00 0.00 33 1010.3
20260504233059 26 346 4.8 17.7 0.00 0.00 0.00 33 1010.3
20260504232556 26 267 9.7 17.7 0.00 0.00 0.00 32 1010.3
20260504232055 26 213 11.3 17.7 0.00 0.00 0.00 32 1010.4
20260504231622 26 242 4.8 14.5 0.00 0.00 0.00 32 1010.4
20260504231055 26 201 3.2 16.1 0.00 0.00 0.00 34 1010.4
20260504230555 26 171 6.4 16.1 0.00 0.00 0.00 32 1010.4
20260504230056 26 214 6.4 17.7 0.00 0.00 0.00 33 1010.4
20260504225558 26 273 8.0 17.7 0.00 0.00 0.00 34 1010.4
20260504225057 26 250 8.0 17.7 0.00 0.00 0.00 34 1010.5
20260504224615 26 296 8.0 17.7 0.00 0.00 0.00 35 1010.4
20260504224056 26 198 8.0 17.7 0.00 0.00 0.00 35 1010.5
20260504223555 26 210 9.7 19.3 0.00 0.00 0.00 33 1010.4
20260504223101 26 287 9.7 19.3 0.00 0.00 0.00 34 1010.4
20260504222556 26 224 6.4 19.3 0.00 0.00 0.00 36 1010.6
20260504222054 26 257 9.7 19.3 0.00 0.00 0.00 34 1010.6
20260504221647 26 248 8.0 17.7 0.00 0.00 0.00 38 1010.7
20260504221055 26 294 8.0 17.7 0.00 0.00 0.00 31 1010.6
20260504220555 26 355 3.2 17.7 0.00 0.00 0.00 32 1010.8
20260504220058 26 209 4.8 17.7 0.00 0.00 0.00 29 1010.9
20260504215555 26 200 8.0 17.7 0.00 0.00 0.00 30 1010.8
20260504215056 26 257 1.6 16.1 0.00 0.00 0.00 33 1011.0
20260504214556 26 241 4.8 16.1 0.00 0.00 0.00 39 1011.0
20260504214055 26 266 6.4 16.1 0.00 0.00 0.00 40 1011.0
20260504213555 26 238 4.8 17.7 0.00 0.00 0.00 33 1011.0
20260504213103 26 312 8.0 17.7 0.00 0.00 0.00 34 1011.1
20260504212556 26 236 4.8 12.9 0.00 0.00 0.00 33 1011.1
20260504212056 26 190 0.0 17.7 0.00 0.00 0.00 35 1011.1
20260504211607 25 182 4.8 17.7 0.00 0.00 0.00 35 1011.1
20260504211057 26 334 4.8 12.9 0.00 0.00 0.00 34 1011.2
20260504210556 25 0 3.2 12.9 0.00 0.00 0.00 41 1011.2
20260504210055 26 267 3.2 14.5 0.00 0.00 0.00 34 1011.2
20260504205558 25 338 4.8 16.1 0.00 0.00 0.00 35 1011.4
20260504205055 25 198 6.4 16.1 0.00 0.00 0.00 35 1011.3
20260504204558 25 211 6.4 16.1 0.00 0.00 0.00 35 1011.2
20260504204055 25 193 6.4 16.1 0.00 0.00 0.00 36 1011.2
20260504203558 25 214 4.8 16.1 0.00 0.00 0.00 38 1011.4
20260504203057 25 296 3.2 11.3 0.00 0.00 0.00 40 1011.4
20260504202554 25 251 4.8 11.3 0.00 0.00 0.00 39 1011.4
20260504202055 25 247 4.8 11.3 0.00 0.00 0.00 40 1011.3
20260504201556 24 229 3.2 11.3 0.00 0.00 0.00 38 1011.4
20260504201055 24 274 6.4 11.3 0.00 0.00 0.00 41 1011.5
20260504200556 24 261 3.2 12.9 0.00 0.00 0.00 40 1011.6
20260504200056 24 211 0.0 12.9 0.00 0.00 0.00 47 1011.6
20260504195555 23 269 3.2 12.9 0.00 0.00 0.00 41 1011.7
20260504195057 23 210 4.8 14.5 0.00 0.00 0.00 40 1011.6
20260504194601 23 244 6.4 14.5 0.00 0.00 0.00 42 1011.6
20260504194056 23 252 4.8 12.9 0.00 0.00 0.00 42 1011.6
20260504193555 24 194 6.4 14.5 0.00 0.00 0.00 40 1011.6
20260504193056 23 264 6.4 17.7 0.00 0.00 0.00 42 1011.6
20260504192555 23 240 8.0 17.7 0.00 0.00 0.00 44 1011.6
20260504192055 23 207 4.8 16.1 0.00 0.00 0.00 44 1011.5
20260504191615 23 252 8.0 16.1 0.00 0.00 0.00 46 1011.6
20260504191056 23 265 8.0 12.9 0.00 0.00 0.00 45 1011.6
20260504190555 23 221 4.8 16.1 0.00 0.00 0.00 44 1011.6
20260504185555 23 0 4.8 9.7 0.00 0.00 0.00 46 1011.6
20260504185055 23 204 3.2 14.5 0.00 0.00 0.00 52 1011.7
20260504184602 23 302 6.4 14.5 0.00 0.00 0.00 46 1011.7
20260504184056 22 227 4.8 9.7 0.00 0.00 0.00 47 1011.7
20260504183556 22 266 3.2 12.9 0.00 0.00 0.00 46 1011.7
20260504183056 22 242 4.8 12.9 0.00 0.00 0.00 45 1011.8
20260504182557 22 274 1.6 11.3 0.00 0.00 0.00 46 1011.8
20260504182054 22 234 3.2 9.7 0.00 0.00 0.00 45 1011.9
20260504181559 22 243 0.0 11.3 0.00 0.00 0.00 51 1011.7
20260504181056 22 213 1.6 12.9 0.00 0.00 0.00 45 1011.8
20260504180556 22 267 6.4 12.9 0.00 0.00 0.00 46 1011.8
20260504180056 21 239 6.4 11.3 0.00 0.00 0.00 45 1011.7
20260504175555 21 211 6.4 11.3 0.00 0.00 0.00 48 1011.7
20260504175055 21 240 6.4 11.3 0.00 0.00 0.00 48 1011.7
20260504174555 21 229 4.8 16.1 0.00 0.00 0.00 48 1011.6
20260504174055 21 232 8.0 16.1 0.00 0.00 0.00 56 1011.7
20260504173558 21 232 3.2 14.5 0.00 0.00 0.00 53 1011.6
20260504173055 21 242 6.4 14.5 0.00 0.00 0.00 52 1011.7
20260504172556 21 259 4.8 12.9 0.00 0.00 0.00 54 1011.7
20260504172101 20 205 6.4 11.3 0.00 0.00 0.00 56 1011.8
20260504171552 20 234 6.4 11.3 0.00 0.00 0.00 56 1011.7
20260504171055 20 263 6.4 12.9 0.00 0.00 0.00 56 1011.7
20260504170554 20 229 3.2 12.9 0.00 0.00 0.00 55 1011.8
20260504151055 15 0 0.0 0.0 0.00 0.00 0.00 75 1011.5
20260504150556 14 0 0.0 0.0 0.00 0.00 0.00 77 1011.5
20260504141056 10 0 0.0 0.0 0.00 0.00 0.00 90 1010.9
20260504140558 10 0 0.0 0.0 0.00 0.00 0.00 89 1011.1
20260504140104 9 0 0.0 0.0 0.00 0.00 0.00 89 1011.0
20260504130552 8 0 0.0 0.0 0.00 0.00 0.00 89 1010.7
20260504110555 9 0 0.0 0.0 0.00 0.00 0.00 87 1010.6
20260504100555 10 0 0.0 0.0 0.00 0.00 0.00 87 1010.6
20260504081557 11 0 0.0 0.0 0.00 0.00 0.00 84 1010.5
20260504081055 11 0 0.0 0.0 0.00 0.00 0.00 84 1010.5
20260504080554 11 0 0.0 0.0 0.00 0.00 0.00 84 1010.6
20260504060106 13 0 0.0 0.0 0.00 0.00 0.00 76 1010.6
20260504050556 15 0 0.0 0.0 0.00 0.00 0.00 69 1010.6
20260504045556 16 0 0.0 0.0 0.00 0.00 0.00 68 1010.7
20260504045057 16 0 0.0 3.2 0.00 0.00 0.00 67 1010.6
20260504044557 16 0 0.0 3.2 0.00 0.00 0.00 66 1010.6
20260504044057 16 317 1.6 3.2 0.00 0.00 0.00 71 1010.5
20260504043600 16 0 0.0 0.0 0.00 0.00 0.00 62 1010.4
20260504043104 17 0 0.0 0.0 0.00 0.00 0.00 61 1010.5
20260504042556 17 0 0.0 0.0 0.00 0.00 0.00 60 1010.5
20260504042057 17 0 0.0 0.0 0.00 0.00 0.00 58 1010.4
20260504041600 18 0 0.0 0.0 0.00 0.00 0.00 57 1010.5
20260504041054 18 0 0.0 0.0 0.00 0.00 0.00 56 1010.4
20260504040556 18 0 0.0 0.0 0.00 0.00 0.00 55 1010.4
20260504040059 18 0 0.0 0.0 0.00 0.00 0.00 53 1010.3
20260504035555 19 0 0.0 0.0 0.00 0.00 0.00 52 1010.2
20260504035058 20 0 0.0 0.0 0.00 0.00 0.00 50 1010.2
20260504034616 20 0 0.0 0.0 0.00 0.00 0.00 47 1010.2
20260504034056 20 0 0.0 0.0 0.00 0.00 0.00 46 1010.1
20260504033558 21 0 0.0 0.0 0.00 0.00 0.00 43 1010.1
20260504033101 21 0 0.0 0.0 0.00 0.00 0.00 42 1010.0
20260504032556 22 0 0.0 0.0 0.00 0.00 0.00 40 1009.9
20260504032056 22 0 0.0 4.8 0.00 0.00 0.00 40 1010.0
20260504031611 22 0 1.6 14.5 0.00 0.00 0.00 38 1010.1
20260504031055 22 0 1.6 14.5 0.00 0.00 0.00 38 1010.1
20260504030556 22 281 3.2 14.5 0.00 0.00 0.00 38 1010.1
20260504030115 22 255 4.8 11.3 0.00 0.00 0.00 37 1010.1
20260504025555 23 273 3.2 9.7 0.00 0.00 0.00 37 1010.1
20260504025057 23 327 3.2 6.4 0.00 0.00 0.00 37 1010.2
20260504024558 23 355 3.2 6.4 0.00 0.00 0.00 37 1010.1
20260504024056 24 317 1.6 9.7 0.00 0.00 0.00 36 1010.0
20260504023554 24 322 3.2 9.7 0.00 0.00 0.00 35 1010.1
20260504023058 24 325 1.6 9.7 0.00 0.00 0.00 35 1010.1
20260504022554 25 331 1.6 14.5 0.00 0.00 0.00 35 1010.1
20260504022056 25 334 6.4 14.5 0.00 0.00 0.00 40 1010.1
20260504021607 25 331 4.8 11.3 0.00 0.00 0.00 37 1010.2
20260504021056 25 342 1.6 6.4 0.00 0.00 0.00 38 1010.2
20260504020556 26 323 1.6 8.0 0.00 0.00 0.00 38 1010.1
20260504020055 26 337 0.0 11.3 0.00 0.00 0.00 39 1010.1
20260504015556 26 324 4.8 11.3 0.00 0.00 0.00 37 1010.1
20260504015056 26 327 4.8 9.7 0.00 0.00 0.00 44 1010.2
20260504014557 26 273 3.2 14.5 0.00 0.00 0.00 45 1010.1
20260504014056 25 336 4.8 14.5 0.00 0.00 0.00 40 1010.2
20260504013556 26 335 3.2 16.1 0.00 0.00 0.00 40 1010.2
20260504013059 26 305 6.4 16.1 0.00 0.00 0.00 40 1010.2
20260504012557 26 346 4.8 14.5 0.00 0.00 0.00 40 1010.2
20260504012053 26 327 4.8 14.5 0.00 0.00 0.00 40 1010.2
20260504011552 26 271 6.4 14.5 0.00 0.00 0.00 40 1010.4
20260504011052 26 331 6.4 16.1 0.00 0.00 0.00 40 1010.4
20260504010552 26 294 8.0 19.3 0.00 0.00 0.00 40 1010.5
20260504010054 26 333 6.4 20.9 0.00 0.00 0.00 40 1010.5
20260504005554 26 336 9.7 20.9 0.00 0.00 0.00 39 1010.6
20260504005052 26 225 8.0 14.5 0.00 0.00 0.00 41 1010.6